Mineral Wells, TX

11:09 AM CDT on July 22, 2017 (GMT -0500)
Mineral Wells

Weather History for KMWL - February, 2014

Change the Weather History Date:

Tuesday, February 18, 2014

  Actual Average Record
Temperature  
Mean Temperature 59 °F -  
Max Temperature 82 °F 59 °F 84 °F (2011)
Min Temperature 36 °F 38 °F 19 °F (2006)
Degree Days  
Heating Degree Days 6    
Growing Degree Days 9 (Base 50)    
Moisture  
Dew Point 42 °F    
Average Humidity 56    
Maximum Humidity 87    
Minimum Humidity 29    
Precipitation  
Precipitation 0.00 in - - ()
Sea Level Pressure  
Sea Level Pressure 29.92 in    
Wind  
Wind Speed 5 mph (SSE)    
Max Wind Speed 21 mph    
Max Gust Speed 26 mph    
Visibility 10 miles    
Events      
Averages and records for this station are not official NWS values.
T = Trace of Precipitation, MM = Missing Value Source: NWS Daily Summary

Daily Weather History Graph

Daily Weather History Graph

Search for Another Location

Airport or City:

Trip Planner

Search our weather history database for the weather conditions in past years. The results will help you decide how hot, cold, wet, or windy it might be!

Date:

Astronomy

Feb. 18, 2014 Rise Set
Actual Time 7:12 AM CST 6:20 PM CST
Civil Twilight 6:47 AM CST 6:45 PM CST
Nautical Twilight 6:18 AM CST 7:14 PM CST
Astronomical Twilight 5:49 AM CST 7:42 PM CST
Moon 9:59 PM CST (2/18) 8:58 AM CST (2/18)
Length of Visible Light 11h 58m
Length of Day
11h 08m
Waning Gibbous, 87% of the Moon is Illuminated
Feb 18
Waning Gibbous
Feb 22
Last Quarter
Mar 1
New
Mar 8
First Quarter
Mar 16
Full

Hourly Weather History & Observations

Time (CST) Temp. Windchill Dew Point Humidity Pressure Visibility Wind Dir Wind Speed Gust Speed Precip Events Conditions
12:53 AM 44.1 °F - 26.1 °F 49% 30.09 in 10.0 mi Calm Calm - N/A   Clear
1:53 AM 41.0 °F - 28.0 °F 60% 30.07 in 10.0 mi Calm Calm - N/A   Clear
2:53 AM 42.1 °F - 28.0 °F 58% 30.05 in 10.0 mi Calm Calm - N/A   Clear
3:53 AM 39.9 °F - 30.9 °F 70% 30.02 in 10.0 mi Calm Calm - N/A   Clear
4:53 AM 37.9 °F - 28.9 °F 70% 30.01 in 10.0 mi Calm Calm - N/A   Clear
5:53 AM 36.0 °F - 30.0 °F 79% 30.03 in 10.0 mi Calm Calm - N/A   Clear
6:53 AM 37.0 °F - 28.9 °F 73% 30.01 in 10.0 mi Calm Calm - N/A   Clear
7:53 AM 37.0 °F 34.5 °F 30.9 °F 79% 30.01 in 10.0 mi North 3.5 mph - N/A   Clear
8:53 AM 46.9 °F - 34.0 °F 61% 30.01 in 10.0 mi Calm Calm - N/A   Clear
9:53 AM 57.9 °F - 30.0 °F 35% 29.99 in 10.0 mi SSE 8.1 mph - N/A   Clear
10:53 AM 64.9 °F - 32.0 °F 29% 29.97 in 10.0 mi South 9.2 mph - N/A   Clear
11:53 AM 75.0 °F - 51.1 °F 43% 29.93 in 10.0 mi SSW 20.7 mph 26.5 mph N/A   Clear
12:53 PM 75.9 °F - 52.0 °F 43% 29.88 in 10.0 mi SSW 16.1 mph - N/A   Clear
1:53 PM 80.1 °F - 52.0 °F 38% 29.84 in 10.0 mi South 15.0 mph 24.2 mph N/A   Clear
2:53 PM 81.0 °F - 52.0 °F 36% 29.81 in 10.0 mi SSW 12.7 mph 25.3 mph N/A   Clear
3:53 PM 81.0 °F - 52.0 °F 36% 29.80 in 10.0 mi South 15.0 mph - N/A   Clear
4:53 PM 82.0 °F - 51.1 °F 34% 29.80 in 10.0 mi South 9.2 mph - N/A   Clear
5:53 PM 79.0 °F - 54.0 °F 42% 29.79 in 10.0 mi South 11.5 mph - N/A   Clear
6:53 PM 72.0 °F - 54.0 °F 53% 29.81 in 10.0 mi SSE 8.1 mph - N/A   Clear
7:53 PM 70.0 °F - 54.0 °F 57% 29.83 in 10.0 mi SSE 9.2 mph - N/A   Clear
8:53 PM 66.0 °F - 54.0 °F 65% 29.83 in 10.0 mi SSE 10.4 mph - N/A   Clear
9:53 PM 64.9 °F - 55.0 °F 70% 29.83 in 10.0 mi SSE 10.4 mph - N/A   Clear
10:53 PM 59.0 °F - 54.0 °F 83% 29.84 in 10.0 mi SE 8.1 mph - N/A   Clear
11:53 PM 57.9 °F - 54.0 °F 87% 29.84 in 10.0 mi SE 6.9 mph - N/A   Clear